Weather History for Salem, IL

Change the Weather History Date:

Friday, March 28, 2014

  Actual Average Record
Temperature  
Mean Temperature 50 °F -  
Max Temperature 58 °F 63 °F 83 °F (1985)
Min Temperature 41 °F 40 °F 22 °F (1966)
Degree Days  
Heating Degree Days 16    
Moisture  
Dew Point 42 °F    
Average Humidity 79    
Maximum Humidity 91    
Minimum Humidity 67    
Precipitation  
Precipitation 0.00 in - - ()
Sea Level Pressure  
Sea Level Pressure 29.97 in    
Wind  
Wind Speed 11 mph (NNW)    
Max Wind Speed 20 mph    
Max Gust Speed 26 mph    
Visibility 10 miles    
Events Rain    
Averages and records for this station are not official NWS values.
T = Trace of Precipitation, MM = Missing Value Source: NWS Daily Summary

Daily Weather History Graph

Daily Weather History Graph

Search for Another Location

Airport:

Trip Planner

Search our weather history database for the weather conditions in past years. The results will help you decide how hot, cold, wet, or windy it might be!

Date:

Astronomy

Mar. 28, 2014 Rise Set
Actual Time 6:46 AM CDT 7:15 PM CDT
Civil Twilight 6:20 AM CDT 7:42 PM CDT
Nautical Twilight 5:48 AM CDT 8:13 PM CDT
Astronomical Twilight 5:16 AM CDT 8:45 PM CDT
Moon 5:16 AM CDT (3/28) 5:13 PM CDT (3/28)
Length of Visible Light 13h 21m
Length of Day
12h 28m
Waning Crescent, 6% of the Moon is Illuminated
Mar 28
Waning Crescent
Mar 30
New
Apr 7
First Quarter
Apr 15
Full
Apr 22
Last Quarter

Hourly Weather History & Observations

Time (CDT) Temp. Windchill Dew Point Humidity Pressure Visibility Wind Dir Wind Speed Gust Speed Precip Events Conditions
12:15 AM 54.5 °F - 52.0 °F 91% 29.69 in 10.0 mi South 11.5 mph 17.3 mph N/A Rain Light Rain
12:35 AM 57.4 °F - 53.2 °F 86% 29.66 in 10.0 mi SSW 16.1 mph 25.3 mph N/A   Light Drizzle
12:55 AM 58.1 °F - 54.5 °F 88% 29.66 in 10.0 mi SW 8.1 mph - N/A   Mostly Cloudy
1:15 AM 57.0 °F - 53.6 °F 88% 29.69 in 10.0 mi WSW 10.4 mph - N/A   Scattered Clouds
1:35 AM 58.1 °F - 54.3 °F 87% 29.69 in 10.0 mi SSW 11.5 mph 18.4 mph N/A   Mostly Cloudy
1:55 AM 57.9 °F - 54.3 °F 88% 29.70 in 10.0 mi SSW 16.1 mph - N/A   Scattered Clouds
2:15 AM 57.2 °F - 53.8 °F 88% 29.69 in 10.0 mi SSW 15.0 mph - N/A   Scattered Clouds
2:35 AM 56.7 °F - 52.2 °F 85% 29.70 in 10.0 mi SW 15.0 mph - N/A   Clear
2:55 AM 56.7 °F - 51.8 °F 84% 29.72 in 10.0 mi WSW 15.0 mph 24.2 mph N/A   Clear
3:15 AM 56.8 °F - 52.5 °F 85% 29.73 in 10.0 mi WSW 16.1 mph 23.0 mph N/A   Mostly Cloudy
3:35 AM 52.5 °F - 46.2 °F 79% 29.77 in 10.0 mi West 17.3 mph 24.2 mph N/A   Overcast
3:55 AM 49.5 °F - 42.8 °F 78% 29.79 in 10.0 mi West 19.6 mph 26.5 mph N/A   Mostly Cloudy
4:15 AM 47.7 °F - 41.2 °F 78% 29.80 in 10.0 mi West 16.1 mph 26.5 mph N/A   Scattered Clouds
4:35 AM 46.4 °F 39.8 °F 40.5 °F 80% 29.81 in 10.0 mi West 16.1 mph 20.7 mph N/A   Clear
4:55 AM 45.5 °F 39.6 °F 40.3 °F 82% 29.82 in 10.0 mi West 12.7 mph - N/A   Clear
5:15 AM 44.2 °F 37.3 °F 39.2 °F 82% 29.83 in 10.0 mi West 15.0 mph 20.7 mph N/A   Clear
5:35 AM 43.3 °F 36.8 °F 38.8 °F 84% 29.84 in 10.0 mi West 12.7 mph 18.4 mph N/A   Scattered Clouds
5:55 AM 42.6 °F 37.2 °F 38.5 °F 85% 29.86 in 10.0 mi West 9.2 mph - N/A   Clear
6:15 AM 42.3 °F 37.3 °F 38.3 °F 86% 29.88 in 10.0 mi West 8.1 mph - N/A   Mostly Cloudy
6:35 AM 41.9 °F 37.5 °F 38.3 °F 87% 29.90 in 10.0 mi West 6.9 mph - N/A   Mostly Cloudy
6:55 AM 41.5 °F 37.8 °F 38.3 °F 88% 29.91 in 10.0 mi West 5.8 mph - N/A   Mostly Cloudy
7:15 AM 42.1 °F 37.7 °F 38.7 °F 88% 29.93 in 10.0 mi West 6.9 mph - N/A   Mostly Cloudy
7:35 AM 42.8 °F 38.0 °F 38.5 °F 85% 29.94 in 10.0 mi West 8.1 mph - N/A   Overcast
7:55 AM 42.8 °F 36.6 °F 38.7 °F 85% 29.95 in 10.0 mi WNW 11.5 mph - N/A   Overcast
8:15 AM 43.0 °F 38.8 °F 38.1 °F 83% 29.96 in 10.0 mi West 6.9 mph - N/A   Overcast
8:35 AM 43.2 °F 37.9 °F 38.3 °F 83% 29.99 in 10.0 mi WNW 9.2 mph - N/A   Overcast
8:55 AM 43.7 °F 38.6 °F 38.3 °F 81% 29.99 in 10.0 mi NW 9.2 mph - N/A   Overcast
9:15 AM 43.9 °F 39.3 °F 38.7 °F 82% 30.00 in 10.0 mi NW 8.1 mph - N/A   Overcast
9:35 AM 44.1 °F 40.8 °F 37.9 °F 79% 30.02 in 10.0 mi NW 5.8 mph - N/A   Overcast
9:55 AM 44.1 °F 42.5 °F 37.8 °F 78% 30.04 in 10.0 mi NW 3.5 mph - N/A   Overcast
10:15 AM 44.1 °F 41.5 °F 37.4 °F 77% 30.05 in 10.0 mi NW 4.6 mph - N/A   Overcast
10:35 AM 44.2 °F 41.8 °F 37.4 °F 77% 30.06 in 10.0 mi North 4.6 mph - N/A   Overcast
10:55 AM 44.4 °F 41.2 °F 37.4 °F 76% 30.06 in 10.0 mi NW 5.8 mph - N/A   Overcast
11:15 AM 44.6 °F - 37.8 °F 77% 30.06 in 10.0 mi Calm Calm - N/A   Overcast
11:35 AM 44.8 °F 42.4 °F 37.8 °F 76% 30.07 in 10.0 mi NNW 4.6 mph - N/A   Overcast
11:55 AM 45.0 °F - 38.1 °F 77% 30.07 in 10.0 mi Calm Calm - N/A   Overcast
12:15 PM 45.0 °F 41.8 °F 37.9 °F 76% 30.07 in 10.0 mi NNW 5.8 mph - N/A   Overcast
12:35 PM 46.9 °F - 39.4 °F 75% 30.07 in 10.0 mi North 6.9 mph - N/A   Overcast
12:55 PM 46.9 °F - 39.0 °F 74% 30.08 in 10.0 mi NNW 5.8 mph - N/A   Overcast
1:15 PM 47.8 °F - 39.9 °F 74% 30.08 in 10.0 mi NNW 10.4 mph - N/A   Mostly Cloudy
1:35 PM 48.2 °F - 39.6 °F 72% 30.08 in 10.0 mi NW 9.2 mph - N/A   Scattered Clouds
1:55 PM 48.4 °F - 39.9 °F 73% 30.07 in 10.0 mi North 11.5 mph - N/A   Clear
2:15 PM 49.3 °F - 40.5 °F 72% 30.05 in 10.0 mi North 12.7 mph - N/A   Clear
2:35 PM 49.6 °F - 40.8 °F 72% 30.05 in 10.0 mi North 11.5 mph 17.3 mph N/A   Clear
2:55 PM 51.1 °F - 41.4 °F 69% 30.04 in 10.0 mi North 11.5 mph - N/A   Clear
3:15 PM 51.4 °F - 40.8 °F 67% 30.03 in 10.0 mi North 8.1 mph - N/A   Clear
3:35 PM 52.0 °F - 41.5 °F 68% 30.03 in 10.0 mi North 9.2 mph - N/A   Clear
3:55 PM 52.9 °F - 42.1 °F 67% 30.02 in 10.0 mi North 9.2 mph - N/A   Clear
4:15 PM 52.5 °F - 42.1 °F 68% 30.02 in 10.0 mi North 11.5 mph - N/A   Clear
4:35 PM 52.3 °F - 42.1 °F 68% 30.02 in 10.0 mi NNE 10.4 mph - N/A   Scattered Clouds
4:55 PM 51.4 °F - 41.4 °F 68% 30.03 in 10.0 mi NE 9.2 mph - N/A   Scattered Clouds
5:15 PM 51.4 °F - 41.5 °F 69% 30.03 in 10.0 mi NNE 8.1 mph - N/A   Clear
5:35 PM 51.4 °F - 41.7 °F 69% 30.03 in 10.0 mi NE 10.4 mph - N/A   Clear
5:55 PM 50.5 °F - 41.0 °F 70% 30.05 in 10.0 mi NE 8.1 mph - N/A   Scattered Clouds
6:15 PM 50.2 °F - 40.8 °F 70% 30.06 in 10.0 mi NNE 9.2 mph - N/A   Mostly Cloudy
6:35 PM 50.0 °F - 41.0 °F 71% 30.06 in 10.0 mi NE 8.1 mph - N/A   Mostly Cloudy
6:55 PM 49.3 °F - 40.8 °F 73% 30.07 in 10.0 mi NNE 8.1 mph - N/A   Overcast
7:15 PM 48.6 °F - 41.0 °F 75% 30.08 in 10.0 mi North 8.1 mph - N/A   Mostly Cloudy
7:35 PM 48.2 °F - 40.5 °F 75% 30.09 in 10.0 mi NNE 6.9 mph - N/A   Scattered Clouds
7:55 PM 47.5 °F - 40.8 °F 78% 30.09 in 10.0 mi NE 4.6 mph - N/A   Mostly Cloudy
8:15 PM 47.3 °F - 40.5 °F 77% 30.10 in 10.0 mi NNE 5.8 mph - N/A   Overcast
8:35 PM 47.3 °F - 40.5 °F 77% 30.10 in 10.0 mi NNE 6.9 mph - N/A   Overcast
8:55 PM 46.8 °F - 40.3 °F 78% 30.11 in 10.0 mi NNE 5.8 mph - N/A   Mostly Cloudy
9:15 PM 46.4 °F 42.9 °F 40.5 °F 80% 30.10 in 10.0 mi NNE 6.9 mph - N/A   Scattered Clouds
9:35 PM 45.9 °F 42.9 °F 40.5 °F 81% 30.10 in 10.0 mi North 5.8 mph - N/A   Scattered Clouds
9:55 PM 45.7 °F 42.0 °F 40.5 °F 82% 30.09 in 10.0 mi North 6.9 mph - N/A   Mostly Cloudy
10:15 PM 45.5 °F 41.3 °F 40.6 °F 83% 30.11 in 10.0 mi North 8.1 mph - N/A   Mostly Cloudy
10:35 PM 45.5 °F 41.3 °F 40.3 °F 82% 30.11 in 10.0 mi North 8.1 mph - N/A   Mostly Cloudy
10:55 PM 45.1 °F 39.9 °F 40.5 °F 84% 30.11 in 10.0 mi North 10.4 mph - N/A   Overcast
11:15 PM 45.5 °F 41.3 °F 40.1 °F 81% 30.11 in 10.0 mi North 8.1 mph - N/A   Overcast
11:35 PM 45.0 °F 39.3 °F 40.1 °F 83% 30.10 in 10.0 mi North 11.5 mph - N/A   Overcast
11:55 PM 45.0 °F 38.2 °F 40.1 °F 83% 30.09 in 10.0 mi North 15.0 mph - N/A   Overcast